Location: Berkeley
(37.8716°N, 122.2727°W)
Time: 23:55:51
(UTC-08:00)

N. Korean satellite - Visible Passes

Search period start: 20 November 2019 00:00
Search period end: 30 November 2019 00:00
Orbit: 456 x 506 km, 97.2° (Epoch: 20 November)

Date Brightness Start Highest point End Pass type
(mag) Time Alt. Az. Time Alt. Az. Time Alt. Az.
20 Nov 8.1 05:37:33 10° NNE 05:41:03 40° E 05:44:28 10° S visible
20 Nov 8.4 17:44:12 10° SSW 17:47:35 37° W 17:51:02 10° NNW visible
21 Nov 9.6 05:12:52 10° NE 05:15:32 19° E 05:18:10 10° SE visible
21 Nov 6.7 17:18:31 10° S 17:22:10 85° WSW 17:25:52 10° NNW visible
22 Nov 6.8 06:20:03 10° N 06:23:36 49° WNW 06:27:06 10° SSW visible
22 Nov 10.3 18:29:39 10° WSW 18:30:26 11° W 18:31:13 10° WNW visible
23 Nov 6.9 05:54:35 10° NNE 05:58:16 72° E 06:01:51 10° S visible
23 Nov 9.4 18:01:57 10° SSW 18:04:51 22° W 18:07:48 10° NW visible
24 Nov 8.6 05:29:31 10° NNE 05:32:49 31° E 05:36:02 10° SSE visible
24 Nov 7.8 17:35:49 10° S 17:39:21 48° W 17:42:57 10° NNW visible
25 Nov 9.9 05:05:08 10° ENE 05:07:16 15° E 05:09:22 10° SE visible
26 Nov 6.5 06:11:47 10° N 06:15:24 64° WNW 06:18:57 10° SSW visible
26 Nov 10.0 18:20:13 10° WSW 18:22:07 14° W 18:24:02 10° WNW visible
27 Nov 7.4 05:46:26 10° NNE 05:50:01 54° E 05:53:30 10° S visible
27 Nov 9.0 17:53:22 10° SSW 17:56:34 28° W 17:59:48 10° NW visible
28 Nov 9.1 05:21:31 10° NE 05:24:31 24° E 05:27:27 10° SSE visible
28 Nov 7.2 17:27:27 10° S 17:31:06 63° W 17:34:48 10° NNW visible
29 Nov 10.1 04:57:40 10° ENE 04:58:56 11° E 05:00:10 10° ESE visible
29 Nov 7.1 06:29:07 10° N 06:32:28 36° WNW 06:35:45 10° SW visible
